Weather History for Ireland West Airport Knock, Ireland

Change the Weather History Date:

Tuesday, August 27, 2013

  Actual Average Record
Temperature  
Mean Temperature 56 °F -  
Max Temperature 60 °F - - ()
Min Temperature 52 °F - - ()
Degree Days  
Heating Degree Days 8    
Growing Degree Days 6 (Base 50)    
Moisture  
Dew Point 54 °F    
Average Humidity 86    
Maximum Humidity 100    
Minimum Humidity 68    
Precipitation  
Precipitation 0.02 in - - ()
Sea Level Pressure  
Sea Level Pressure 30.21 in    
Wind  
Wind Speed 8 mph ()    
Max Wind Speed 13 mph    
Max Gust Speed -    
Visibility 5.3 miles    
Events Fog    
T = Trace of Precipitation, MM = Missing Value Source: Averaged Metar Reports

Daily Weather History Graph

Daily Weather History Graph

Search for Another Location

Airport:

Trip Planner

Search our weather history database for the weather conditions in past years. The results will help you decide how hot, cold, wet, or windy it might be!

Date:

Astronomy

Aug. 27, 2013 Rise Set
Actual Time 6:34 AM IST 8:37 PM IST
Civil Twilight 5:56 AM IST 9:15 PM IST
Nautical Twilight 5:09 AM IST 10:02 PM IST
Astronomical Twilight 4:13 AM IST 10:57 PM IST
Moon 11:13 PM IST (8/27) 2:27 PM IST (8/27)
Length of Visible Light 15h 18m
Length of Day
14h 02m
Waning Gibbous, 59% of the Moon is Illuminated
Aug 27
Waning Gibbous
Aug 28
Last Quarter
Sep 5
New
Sep 12
First Quarter
Sep 19
Full

Hourly Weather History & Observations

Time (IST) Temp. Dew Point Humidity Pressure Visibility Wind Dir Wind Speed Gust Speed Precip Events Conditions
1:00 AM 56 °F 56 °F 100% 30.15 in - West 11.2 mph - -  
7:00 AM 57.2 °F 57.2 °F 100% 30.12 in 0.2 mi West 5.8 mph - N/A Fog Light Drizzle
7:30 AM 57.2 °F 57.2 °F 100% 30.15 in 0.3 mi West 5.8 mph - N/A Fog Light Drizzle
8:00 AM 57.2 °F 57.2 °F 100% 30.15 in 0.2 mi WNW 4.6 mph - N/A Fog Light Drizzle
8:30 AM 57.2 °F 57.2 °F 100% 30.15 in 0.7 mi WNW 5.8 mph - N/A   Light Drizzle
9:00 AM 57.2 °F 57.2 °F 100% 30.15 in 0.9 mi WNW 6.9 mph - N/A   Light Drizzle
9:30 AM 57.2 °F 57.2 °F 100% 30.15 in 3.7 mi NNW 9.2 mph - N/A   Light Drizzle
10:00 AM 57.2 °F 57.2 °F 100% 30.18 in 5.0 mi NNW 8.1 mph - N/A   Overcast
10:30 AM 57.2 °F 57.2 °F 100% 30.18 in 5.0 mi NNW 10.4 mph - N/A   Overcast
11:00 AM 57.2 °F 57.2 °F 100% 30.18 in 5.0 mi North 9.2 mph - N/A   Overcast
11:30 AM 57.2 °F 55.4 °F 94% 30.18 in 5.6 mi NNW 9.2 mph - N/A   Overcast
12:00 PM 59.0 °F 55.4 °F 88% 30.18 in 6.2 mi North 9.2 mph - N/A   Overcast
12:30 PM 59.0 °F 53.6 °F 82% 30.18 in 6.2 mi NNW 11.5 mph - N/A   Mostly Cloudy
1:00 PM 58 °F 54 °F 84% 30.22 in 19 mi NNW 13.4 mph - -   Partly Cloudy
1:00 PM 59.0 °F 55.4 °F 88% 30.21 in 6.2 mi NNW 12.7 mph - N/A   Overcast
1:30 PM 59.0 °F 55.4 °F 88% 30.21 in 6.2 mi North 10.4 mph - N/A   Mostly Cloudy
2:00 PM 59.0 °F 53.6 °F 82% 30.21 in 6.2 mi NNW 12.7 mph - N/A   Mostly Cloudy
2:30 PM 59.0 °F 53.6 °F 82% 30.21 in 6.2 mi North 9.2 mph - N/A   Mostly Cloudy
3:00 PM 59 °F 53 °F 73% 30.23 in 28 mi NNW 6.9 mph - -   Mostly Cloudy
3:00 PM 59.0 °F 53.6 °F 82% 30.21 in 6.2 mi NNW 12.7 mph - N/A   Mostly Cloudy
3:30 PM 59.0 °F 51.8 °F 77% 30.21 in 6.2 mi NNW 12.7 mph - N/A   Mostly Cloudy
4:00 PM 59 °F 52 °F 71% 30.23 in 31 mi North 11.2 mph - -   Mostly Cloudy
4:00 PM 59.0 °F 51.8 °F 77% 30.21 in 6.2 mi North 11.5 mph - N/A   Mostly Cloudy
4:30 PM 59.0 °F 51.8 °F 77% 30.21 in 6.2 mi North 11.5 mph - N/A   Mostly Cloudy
5:00 PM 58 °F 50 °F 68% 30.24 in 34 mi North 11.2 mph - -   Mostly Cloudy
5:00 PM 57.2 °F 50.0 °F 77% 30.21 in 6.2 mi North 10.4 mph - N/A   Mostly Cloudy
5:30 PM 59.0 °F 50.0 °F 72% 30.24 in 6.2 mi North 10.4 mph - N/A   Mostly Cloudy
6:00 PM 57 °F 50 °F 71% 30.25 in 34 mi North 5.8 mph - -   Mostly Cloudy
6:00 PM 57.2 °F 50.0 °F 77% 30.24 in 6.2 mi North 10.4 mph - N/A   Mostly Cloudy
7:00 PM 56 °F 52 °F 80% 30.25 in 34 mi North 8.9 mph - -   Mostly Cloudy
7:00 PM 57.2 °F 51.8 °F 82% 30.24 in 6.2 mi North 9.2 mph - N/A   Mostly Cloudy
8:00 PM 55 °F 52 °F 86% 30.27 in - North 6.7 mph - -  
9:00 PM 54 °F 51 °F 88% 30.29 in - North 4.5 mph - -  
10:00 PM 53 °F 51 °F 89% 30.30 in - NNW 4.5 mph - -  
11:00 PM 52 °F 49 °F 88% 30.30 in - North 4.5 mph - -